7 * 24
多渠道服务支持
STARLINK-36842是美国SpaceX公司星链(Starlink)星座的卫星,于2026年2月21日由猎鹰9号火箭从加利福尼亚州范登堡基地发射升空,属于Starlink 17-25组网任务,被部署至近地轨道。星链星座旨在提供全球宽带互联网服务,该卫星采用平板设计与霍尔推进技术,具备自主避撞能力,退役后将受控坠入大气层烧毁,服务寿命约5-7年。此次发射后SpaceX星链总发射量突破万颗规模。
美国
(US)
| 数据来源 | 国际轨道数据 |
| 星历时间: | 2026-05-24T02:56:02+0800 1天前 查看轨道信息 |
| 半长轴: | 6843.686km |
| 偏心率: | 0.0001743 |
| 轨道倾角: | 97.285° |
| 近地点辐角 | 95.377° |
| 升交点赤经 | 77.278° |
| 平近点角 | 264.767° |
| 近地点: | 464.356km |
| 远地点: | 466.742km |
| 周期: | 93.906分钟 |
| 每日圈数: | 15.334433 |